owner,sensor,date,latitude,longitude,vertical_datum,wind_speed,wind_to_direction,wind_speed_of_gust,qcFlag 
WAVCIS,ioos:station:WAVCIS:CSI15:1,2011-02-01T00:00:00Z,28.8332,-90.8320,10.0,5.125,74.0,,'11111222,11111222,99999999' 
WAVCIS,ioos:station:WAVCIS:CSI15:1,2011-02-01T01:00:00Z,28.8332,-90.8320,10.0,6.901,90.0,,'11111222,11111222,99999999' 
WAVCIS,ioos:station:WAVCIS:CSI15:1,2011-02-01T02:00:00Z,28.8332,-90.8320,10.0,6.263,80.0,,'11111222,11111222,99999999' 
WAVCIS,ioos:station:WAVCIS:CSI15:1,2011-02-01T03:00:00Z,28.8332,-90.8320,10.0,6.928,78.0,,'11111222,11111222,99999999' 
WAVCIS,ioos:station:WAVCIS:CSI15:1,2011-02-01T04:00:00Z,28.8332,-90.8320,10.0,6.792,86.0,,'11111222,11111222,99999999' 
WAVCIS,ioos:station:WAVCIS:CSI15:1,2011-02-01T05:00:00Z,28.8332,-90.8320,10.0,8.11,93.0,,'11111222,11111222,99999999' 
WAVCIS,ioos:station:WAVCIS:CSI15:1,2011-02-01T06:00:00Z,28.8332,-90.8320,10.0,7.75,91.0,,'11111222,11111222,99999999' 
WAVCIS,ioos:station:WAVCIS:CSI15:1,2011-02-01T07:00:00Z,28.8332,-90.8320,10.0,7.65,93.0,,'11111222,11111222,99999999' 
WAVCIS,ioos:station:WAVCIS:CSI15:1,2011-02-01T08:00:00Z,28.8332,-90.8320,10.0,7.03,90.0,,'11111222,11111222,99999999' 
WAVCIS,ioos:station:WAVCIS:CSI15:1,2011-02-01T09:00:00Z,28.8332,-90.8320,10.0,8.57,92.0,,'11111222,11111222,99999999' 
WAVCIS,ioos:station:WAVCIS:CSI15:1,2011-02-01T10:00:00Z,28.8332,-90.8320,10.0,9.35,104.0,,'11111222,11111222,99999999' 
WAVCIS,ioos:station:WAVCIS:CSI15:1,2011-02-01T11:00:00Z,28.8332,-90.8320,10.0,9.54,102.0,,'11111222,11111222,99999999' 
WAVCIS,ioos:station:WAVCIS:CSI15:1,2011-02-01T12:00:00Z,28.8332,-90.8320,10.0,9.36,100.0,,'11111222,11111222,99999999' 
WAVCIS,ioos:station:WAVCIS:CSI15:1,2011-02-01T13:00:00Z,28.8332,-90.8320,10.0,9.41,102.0,,'11111222,11111222,99999999' 
WAVCIS,ioos:station:WAVCIS:CSI15:1,2011-02-01T14:00:00Z,28.8332,-90.8320,10.0,6.905,94.0,,'11111222,11111222,99999999' 
WAVCIS,ioos:station:WAVCIS:CSI15:1,2011-02-01T15:00:00Z,28.8332,-90.8320,10.0,8.43,113.0,,'11111222,11111222,99999999' 
WAVCIS,ioos:station:WAVCIS:CSI15:1,2011-02-01T16:00:00Z,28.8332,-90.8320,10.0,10.3,132.0,,'11111222,11111222,99999999' 
WAVCIS,ioos:station:WAVCIS:CSI15:1,2011-02-01T17:00:00Z,28.8332,-90.8320,10.0,11.81,141.0,,'11111222,11111222,99999999' 
WAVCIS,ioos:station:WAVCIS:CSI15:1,2011-02-01T18:00:00Z,28.8332,-90.8320,10.0,12.89,148.0,,'11111222,11111222,99999999' 
WAVCIS,ioos:station:WAVCIS:CSI15:1,2011-02-01T19:00:00Z,28.8332,-90.8320,10.0,13.8,151.0,,'11111222,11111222,99999999' 
WAVCIS,ioos:station:WAVCIS:CSI15:1,2011-02-01T20:00:00Z,28.8332,-90.8320,10.0,15.24,166.0,,'11111222,11111222,99999999' 
WAVCIS,ioos:station:WAVCIS:CSI15:1,2011-02-01T21:00:00Z,28.8332,-90.8320,10.0,11.14,282.0,,'11111222,11111222,99999999' 
WAVCIS,ioos:station:WAVCIS:CSI15:1,2011-02-01T22:00:00Z,28.8332,-90.8320,10.0,13.35,269.0,,'11111222,11111222,99999999' 
WAVCIS,ioos:station:WAVCIS:CSI15:1,2011-02-01T23:00:00Z,28.8332,-90.8320,10.0,11.94,263.0,,'11111222,11111222,99999999' 
WAVCIS,ioos:station:WAVCIS:CSI15:1,2011-02-02T00:00:00Z,28.8332,-90.8320,10.0,12.09,279.0,,'11111222,11111222,99999999' 
WAVCIS,ioos:station:WAVCIS:CSI15:1,2011-02-02T01:00:00Z,28.8332,-90.8320,10.0,11.9,284.0,,'11111222,11111222,99999999' 
WAVCIS,ioos:station:WAVCIS:CSI15:1,2011-02-02T02:00:00Z,28.8332,-90.8320,10.0,11.1,291.0,,'11111222,11111222,99999999' 
WAVCIS,ioos:station:WAVCIS:CSI15:1,2011-02-02T03:00:00Z,28.8332,-90.8320,10.0,11.6,293.0,,'11111222,11111222,99999999' 
WAVCIS,ioos:station:WAVCIS:CSI15:1,2011-02-02T04:00:00Z,28.8332,-90.8320,10.0,12.76,299.0,,'11111222,11111222,99999999' 
WAVCIS,ioos:station:WAVCIS:CSI15:1,2011-02-02T05:00:00Z,28.8332,-90.8320,10.0,13.23,305.0,,'11111222,11111222,99999999' 
WAVCIS,ioos:station:WAVCIS:CSI15:1,2011-02-02T06:00:00Z,28.8332,-90.8320,10.0,12.32,315.0,,'11111222,11111222,99999999' 
WAVCIS,ioos:station:WAVCIS:CSI15:1,2011-02-02T07:00:00Z,28.8332,-90.8320,10.0,12.71,322.0,,'11111222,11111222,99999999' 
WAVCIS,ioos:station:WAVCIS:CSI15:1,2011-02-02T08:00:00Z,28.8332,-90.8320,10.0,13.08,330.0,,'11111222,11111222,99999999' 
WAVCIS,ioos:station:WAVCIS:CSI15:1,2011-02-02T09:00:00Z,28.8332,-90.8320,10.0,11.43,340.0,,'11111222,11111222,99999999' 
WAVCIS,ioos:station:WAVCIS:CSI15:1,2011-02-02T10:00:00Z,28.8332,-90.8320,10.0,11.44,334.0,,'11111222,11111222,99999999' 
WAVCIS,ioos:station:WAVCIS:CSI15:1,2011-02-02T11:00:00Z,28.8332,-90.8320,10.0,11.89,333.0,,'11111222,11111222,99999999' 
WAVCIS,ioos:station:WAVCIS:CSI15:1,2011-02-02T12:00:00Z,28.8332,-90.8320,10.0,11.27,332.0,,'11111222,11111222,99999999' 
WAVCIS,ioos:station:WAVCIS:CSI15:1,2011-02-02T13:00:00Z,28.8332,-90.8320,10.0,10.75,326.0,,'11111222,11111222,99999999' 
WAVCIS,ioos:station:WAVCIS:CSI15:1,2011-02-02T14:00:00Z,28.8332,-90.8320,10.0,12.9,325.0,,'11111222,11111222,99999999' 
WAVCIS,ioos:station:WAVCIS:CSI15:1,2011-02-02T15:00:00Z,28.8332,-90.8320,10.0,10.75,325.0,,'11111222,11111222,99999999' 
WAVCIS,ioos:station:WAVCIS:CSI15:1,2011-02-02T16:00:00Z,28.8332,-90.8320,10.0,9.69,334.0,,'11111222,11111222,99999999' 
WAVCIS,ioos:station:WAVCIS:CSI15:1,2011-02-02T17:00:00Z,28.8332,-90.8320,10.0,8.53,337.0,,'11111222,11111222,99999999' 
WAVCIS,ioos:station:WAVCIS:CSI15:1,2011-02-02T18:00:00Z,28.8332,-90.8320,10.0,8.91,340.0,,'11111222,11111222,99999999' 
WAVCIS,ioos:station:WAVCIS:CSI15:1,2011-02-02T19:00:00Z,28.8332,-90.8320,10.0,11.42,338.0,,'11111222,11111222,99999999' 
WAVCIS,ioos:station:WAVCIS:CSI15:1,2011-02-02T20:00:00Z,28.8332,-90.8320,10.0,11.41,334.0,,'11111222,11111222,99999999' 
WAVCIS,ioos:station:WAVCIS:CSI15:1,2011-02-02T21:00:00Z,28.8332,-90.8320,10.0,10.85,342.0,,'11111222,11111222,99999999' 
WAVCIS,ioos:station:WAVCIS:CSI15:1,2011-02-02T22:00:00Z,28.8332,-90.8320,10.0,10.82,350.0,,'11111222,11111222,99999999' 
WAVCIS,ioos:station:WAVCIS:CSI15:1,2011-02-02T23:00:00Z,28.8332,-90.8320,10.0,11.09,343.0,,'11111222,11111222,99999999' 
WAVCIS,ioos:station:WAVCIS:CSI15:1,2011-02-03T00:00:00Z,28.8332,-90.8320,10.0,10.67,353.0,,'11111222,11111222,99999999' 
WAVCIS,ioos:station:WAVCIS:CSI15:1,2011-02-03T01:00:00Z,28.8332,-90.8320,10.0,11.6,2.0,,'11111222,11111222,99999999' 
WAVCIS,ioos:station:WAVCIS:CSI15:1,2011-02-03T02:00:00Z,28.8332,-90.8320,10.0,11.06,354.0,,'11111222,11111222,99999999' 
WAVCIS,ioos:station:WAVCIS:CSI15:1,2011-02-03T03:00:00Z,28.8332,-90.8320,10.0,10.43,2.0,,'11111222,11111222,99999999' 
WAVCIS,ioos:station:WAVCIS:CSI15:1,2011-02-03T04:00:00Z,28.8332,-90.8320,10.0,10.47,10.0,,'11111222,11111222,99999999' 
WAVCIS,ioos:station:WAVCIS:CSI15:1,2011-02-03T05:00:00Z,28.8332,-90.8320,10.0,10.06,350.0,,'11111222,11111222,99999999' 
WAVCIS,ioos:station:WAVCIS:CSI15:1,2011-02-03T06:00:00Z,28.8332,-90.8320,10.0,10.31,356.0,,'11111222,11111222,99999999' 
WAVCIS,ioos:station:WAVCIS:CSI15:1,2011-02-03T07:00:00Z,28.8332,-90.8320,10.0,9.92,355.0,,'11111222,11111222,99999999' 
WAVCIS,ioos:station:WAVCIS:CSI15:1,2011-02-03T08:00:00Z,28.8332,-90.8320,10.0,8.26,359.0,,'11111222,11111222,99999999' 
WAVCIS,ioos:station:WAVCIS:CSI15:1,2011-02-03T09:00:00Z,28.8332,-90.8320,10.0,8.86,1.0,,'11111222,11111222,99999999' 
WAVCIS,ioos:station:WAVCIS:CSI15:1,2011-02-03T10:00:00Z,28.8332,-90.8320,10.0,9.0,18.0,,'11111222,11111222,99999999' 
WAVCIS,ioos:station:WAVCIS:CSI15:1,2011-02-03T11:00:00Z,28.8332,-90.8320,10.0,8.67,13.0,,'11111222,11111222,99999999' 
WAVCIS,ioos:station:WAVCIS:CSI15:1,2011-02-03T12:00:00Z,28.8332,-90.8320,10.0,8.09,330.0,,'11111222,11111222,99999999' 
WAVCIS,ioos:station:WAVCIS:CSI15:1,2011-02-03T13:00:00Z,28.8332,-90.8320,10.0,9.72,344.0,,'11111222,11111222,99999999' 
WAVCIS,ioos:station:WAVCIS:CSI15:1,2011-02-03T14:00:00Z,28.8332,-90.8320,10.0,8.84,0.0,,'11111222,11144222,99999999' 
WAVCIS,ioos:station:WAVCIS:CSI15:1,2011-02-03T15:00:00Z,28.8332,-90.8320,10.0,8.37,5.0,,'11111222,11111222,99999999' 
WAVCIS,ioos:station:WAVCIS:CSI15:1,2011-02-03T16:00:00Z,28.8332,-90.8320,10.0,8.67,2.0,,'11111222,11111222,99999999' 
WAVCIS,ioos:station:WAVCIS:CSI15:1,2011-02-03T17:00:00Z,28.8332,-90.8320,10.0,9.91,358.0,,'11111222,11111222,99999999' 
WAVCIS,ioos:station:WAVCIS:CSI15:1,2011-02-03T18:00:00Z,28.8332,-90.8320,10.0,8.95,356.0,,'11111222,11111222,99999999' 
WAVCIS,ioos:station:WAVCIS:CSI15:1,2011-02-03T19:00:00Z,28.8332,-90.8320,10.0,9.42,340.0,,'11111222,11111222,99999999' 
WAVCIS,ioos:station:WAVCIS:CSI15:1,2011-02-03T20:00:00Z,28.8332,-90.8320,10.0,9.66,3.0,,'11111222,11111222,99999999' 
WAVCIS,ioos:station:WAVCIS:CSI15:1,2011-02-03T21:00:00Z,28.8332,-90.8320,10.0,9.65,355.0,,'11111222,11111222,99999999' 
WAVCIS,ioos:station:WAVCIS:CSI15:1,2011-02-03T22:00:00Z,28.8332,-90.8320,10.0,9.85,7.0,,'11111222,11111222,99999999' 
WAVCIS,ioos:station:WAVCIS:CSI15:1,2011-02-03T23:00:00Z,28.8332,-90.8320,10.0,9.55,11.0,,'11111222,11111222,99999999' 
WAVCIS,ioos:station:WAVCIS:CSI15:1,2011-02-04T00:00:00Z,28.8332,-90.8320,10.0,9.25,357.0,,'11111222,11111222,99999999' 
WAVCIS,ioos:station:WAVCIS:CSI15:1,2011-02-04T01:00:00Z,28.8332,-90.8320,10.0,9.65,0.0,,'11111222,11111222,99999999' 
WAVCIS,ioos:station:WAVCIS:CSI15:1,2011-02-04T02:00:00Z,28.8332,-90.8320,10.0,10.54,7.0,,'11111222,11111222,99999999' 
WAVCIS,ioos:station:WAVCIS:CSI15:1,2011-02-04T03:00:00Z,28.8332,-90.8320,10.0,10.62,20.0,,'11111222,11111222,99999999' 
WAVCIS,ioos:station:WAVCIS:CSI15:1,2011-02-04T04:00:00Z,28.8332,-90.8320,10.0,12.79,37.0,,'11111222,11111222,99999999' 
WAVCIS,ioos:station:WAVCIS:CSI15:1,2011-02-04T05:00:00Z,28.8332,-90.8320,10.0,10.38,21.0,,'11111222,11111222,99999999' 
WAVCIS,ioos:station:WAVCIS:CSI15:1,2011-02-04T06:00:00Z,28.8332,-90.8320,10.0,10.91,21.0,,'11111222,11111222,99999999' 
WAVCIS,ioos:station:WAVCIS:CSI15:1,2011-02-04T07:00:00Z,28.8332,-90.8320,10.0,9.55,10.0,,'11111222,11111222,99999999' 
WAVCIS,ioos:station:WAVCIS:CSI15:1,2011-02-04T08:00:00Z,28.8332,-90.8320,10.0,8.97,16.0,,'11111222,11111222,99999999' 
WAVCIS,ioos:station:WAVCIS:CSI15:1,2011-02-04T09:00:00Z,28.8332,-90.8320,10.0,12.19,46.0,,'11111222,11111222,99999999' 
WAVCIS,ioos:station:WAVCIS:CSI15:1,2011-02-04T10:00:00Z,28.8332,-90.8320,10.0,9.55,36.0,,'11111222,11111222,99999999' 
WAVCIS,ioos:station:WAVCIS:CSI15:1,2011-02-04T11:00:00Z,28.8332,-90.8320,10.0,7.93,352.0,,'11111222,11111222,99999999' 
WAVCIS,ioos:station:WAVCIS:CSI15:1,2011-02-04T12:00:00Z,28.8332,-90.8320,10.0,9.77,340.0,,'11111222,11111222,99999999' 
WAVCIS,ioos:station:WAVCIS:CSI15:1,2011-02-04T13:00:00Z,28.8332,-90.8320,10.0,10.52,321.0,,'11111222,11111222,99999999' 
WAVCIS,ioos:station:WAVCIS:CSI15:1,2011-02-04T14:00:00Z,28.8332,-90.8320,10.0,10.45,327.0,,'11111222,11111222,99999999' 
WAVCIS,ioos:station:WAVCIS:CSI15:1,2011-02-04T15:00:00Z,28.8332,-90.8320,10.0,9.6,323.0,,'11111222,11111222,99999999' 
WAVCIS,ioos:station:WAVCIS:CSI15:1,2011-02-04T16:00:00Z,28.8332,-90.8320,10.0,11.41,324.0,,'11111222,11111222,99999999' 
WAVCIS,ioos:station:WAVCIS:CSI15:1,2011-02-04T17:00:00Z,28.8332,-90.8320,10.0,11.17,317.0,,'11111222,11111222,99999999' 
WAVCIS,ioos:station:WAVCIS:CSI15:1,2011-02-04T18:00:00Z,28.8332,-90.8320,10.0,11.26,313.0,,'11111222,11111222,99999999' 
WAVCIS,ioos:station:WAVCIS:CSI15:1,2011-02-04T19:00:00Z,28.8332,-90.8320,10.0,10.32,314.0,,'11111222,11111222,99999999' 
WAVCIS,ioos:station:WAVCIS:CSI15:1,2011-02-04T20:00:00Z,28.8332,-90.8320,10.0,9.34,308.0,,'11111222,11111222,99999999' 
WAVCIS,ioos:station:WAVCIS:CSI15:1,2011-02-04T21:00:00Z,28.8332,-90.8320,10.0,10.14,296.0,,'11111222,11111222,99999999' 
WAVCIS,ioos:station:WAVCIS:CSI15:1,2011-02-04T22:00:00Z,28.8332,-90.8320,10.0,7.3,304.0,,'11111222,11111222,99999999' 
WAVCIS,ioos:station:WAVCIS:CSI15:1,2011-02-04T23:00:00Z,28.8332,-90.8320,10.0,9.52,283.0,,'11111222,11111222,99999999' 
WAVCIS,ioos:station:WAVCIS:CSI15:1,2011-02-05T00:00:00Z,28.8332,-90.8320,10.0,10.12,285.0,,'11111222,11111222,99999999' 
WAVCIS,ioos:station:WAVCIS:CSI15:1,2011-02-05T01:00:00Z,28.8332,-90.8320,10.0,10.23,278.0,,'11111222,11111222,99999999' 
WAVCIS,ioos:station:WAVCIS:CSI15:1,2011-02-05T02:00:00Z,28.8332,-90.8320,10.0,10.54,278.0,,'11111222,11111222,99999999' 
WAVCIS,ioos:station:WAVCIS:CSI15:1,2011-02-05T03:00:00Z,28.8332,-90.8320,10.0,10.38,273.0,,'11111222,11111222,99999999' 
WAVCIS,ioos:station:WAVCIS:CSI15:1,2011-02-05T04:00:00Z,28.8332,-90.8320,10.0,11.93,273.0,,'11111222,11111222,99999999' 
WAVCIS,ioos:station:WAVCIS:CSI15:1,2011-02-05T05:00:00Z,28.8332,-90.8320,10.0,12.34,267.0,,'11111222,11111222,99999999' 
WAVCIS,ioos:station:WAVCIS:CSI15:1,2011-02-05T06:00:00Z,28.8332,-90.8320,10.0,12.08,267.0,,'11111222,11111222,99999999' 
WAVCIS,ioos:station:WAVCIS:CSI15:1,2011-02-05T07:00:00Z,28.8332,-90.8320,10.0,13.06,267.0,,'11111222,11111222,99999999' 
WAVCIS,ioos:station:WAVCIS:CSI15:1,2011-02-05T08:00:00Z,28.8332,-90.8320,10.0,13.14,275.0,,'11111222,11111222,99999999' 
WAVCIS,ioos:station:WAVCIS:CSI15:1,2011-02-05T09:00:00Z,28.8332,-90.8320,10.0,14.48,275.0,,'11111222,11111222,99999999' 
WAVCIS,ioos:station:WAVCIS:CSI15:1,2011-02-05T10:00:00Z,28.8332,-90.8320,10.0,15.99,278.0,,'11111222,11111222,99999999' 
WAVCIS,ioos:station:WAVCIS:CSI15:1,2011-02-05T11:00:00Z,28.8332,-90.8320,10.0,14.49,286.0,,'11111222,11111222,99999999' 
WAVCIS,ioos:station:WAVCIS:CSI15:1,2011-02-05T12:00:00Z,28.8332,-90.8320,10.0,15.06,294.0,,'11111222,11111222,99999999' 
WAVCIS,ioos:station:WAVCIS:CSI15:1,2011-02-05T13:00:00Z,28.8332,-90.8320,10.0,14.29,298.0,,'11111222,11111222,99999999' 
WAVCIS,ioos:station:WAVCIS:CSI15:1,2011-02-05T14:00:00Z,28.8332,-90.8320,10.0,13.25,302.0,,'11111222,11111222,99999999' 
WAVCIS,ioos:station:WAVCIS:CSI15:1,2011-02-05T15:00:00Z,28.8332,-90.8320,10.0,10.95,301.0,,'11111222,11111222,99999999' 
WAVCIS,ioos:station:WAVCIS:CSI15:1,2011-02-05T16:00:00Z,28.8332,-90.8320,10.0,8.37,289.0,,'11111222,11111222,99999999' 
WAVCIS,ioos:station:WAVCIS:CSI15:1,2011-02-05T17:00:00Z,28.8332,-90.8320,10.0,7.92,290.0,,'11111222,11111222,99999999' 
WAVCIS,ioos:station:WAVCIS:CSI15:1,2011-02-05T18:00:00Z,28.8332,-90.8320,10.0,5.249,281.0,,'11111222,11111222,99999999' 
WAVCIS,ioos:station:WAVCIS:CSI15:1,2011-02-05T19:00:00Z,28.8332,-90.8320,10.0,5.625,278.0,,'11111222,11111222,99999999' 
WAVCIS,ioos:station:WAVCIS:CSI15:1,2011-02-05T20:00:00Z,28.8332,-90.8320,10.0,3.986,274.0,,'11111222,11111222,99999999' 
WAVCIS,ioos:station:WAVCIS:CSI15:1,2011-02-05T21:00:00Z,28.8332,-90.8320,10.0,2.788,258.0,,'11111222,11111222,99999999' 
WAVCIS,ioos:station:WAVCIS:CSI15:1,2011-02-05T22:00:00Z,28.8332,-90.8320,10.0,2.047,280.0,,'11111222,11111222,99999999' 
WAVCIS,ioos:station:WAVCIS:CSI15:1,2011-02-05T23:00:00Z,28.8332,-90.8320,10.0,1.643,277.0,,'11111222,11111222,99999999' 
WAVCIS,ioos:station:WAVCIS:CSI15:1,2011-02-06T00:00:00Z,28.8332,-90.8320,10.0,1.331,280.0,,'11111222,11111222,99999999' 
WAVCIS,ioos:station:WAVCIS:CSI15:1,2011-02-06T01:00:00Z,28.8332,-90.8320,10.0,1.247,351.0,,'11111222,11111222,99999999' 
WAVCIS,ioos:station:WAVCIS:CSI15:1,2011-02-06T02:00:00Z,28.8332,-90.8320,10.0,1.077,51.0,,'11111222,11111222,99999999' 
WAVCIS,ioos:station:WAVCIS:CSI15:1,2011-02-06T03:00:00Z,28.8332,-90.8320,10.0,1.47,96.0,,'11111222,11111222,99999999' 
WAVCIS,ioos:station:WAVCIS:CSI15:1,2011-02-06T04:00:00Z,28.8332,-90.8320,10.0,2.312,123.0,,'11111222,11111222,99999999' 
WAVCIS,ioos:station:WAVCIS:CSI15:1,2011-02-06T05:00:00Z,28.8332,-90.8320,10.0,4.191,129.0,,'11111222,11111222,99999999' 
WAVCIS,ioos:station:WAVCIS:CSI15:1,2011-02-06T06:00:00Z,28.8332,-90.8320,10.0,5.132,141.0,,'11111222,11111222,99999999' 
WAVCIS,ioos:station:WAVCIS:CSI15:1,2011-02-06T07:00:00Z,28.8332,-90.8320,10.0,4.026,144.0,,'11111222,11111222,99999999' 
WAVCIS,ioos:station:WAVCIS:CSI15:1,2011-02-06T08:00:00Z,28.8332,-90.8320,10.0,4.36,152.0,,'11111222,11111222,99999999' 
WAVCIS,ioos:station:WAVCIS:CSI15:1,2011-02-06T09:00:00Z,28.8332,-90.8320,10.0,6.006,160.0,,'11111222,11111222,99999999' 
WAVCIS,ioos:station:WAVCIS:CSI15:1,2011-02-06T10:00:00Z,28.8332,-90.8320,10.0,5.673,173.0,,'11111222,11111222,99999999' 
WAVCIS,ioos:station:WAVCIS:CSI15:1,2011-02-06T11:00:00Z,28.8332,-90.8320,10.0,4.745,176.0,,'11111222,11111222,99999999' 
WAVCIS,ioos:station:WAVCIS:CSI15:1,2011-02-06T12:00:00Z,28.8332,-90.8320,10.0,3.763,182.0,,'11111222,11111222,99999999' 
WAVCIS,ioos:station:WAVCIS:CSI15:1,2011-02-06T13:00:00Z,28.8332,-90.8320,10.0,4.302,156.0,,'11111222,11111222,99999999' 
WAVCIS,ioos:station:WAVCIS:CSI15:1,2011-02-06T14:00:00Z,28.8332,-90.8320,10.0,3.18,147.0,,'11111222,11111222,99999999' 
WAVCIS,ioos:station:WAVCIS:CSI15:1,2011-02-06T15:00:00Z,28.8332,-90.8320,10.0,2.622,134.0,,'11111222,11111222,99999999' 
WAVCIS,ioos:station:WAVCIS:CSI15:1,2011-02-06T16:00:00Z,28.8332,-90.8320,10.0,2.222,89.0,,'11111222,11111222,99999999' 
WAVCIS,ioos:station:WAVCIS:CSI15:1,2011-02-06T17:00:00Z,28.8332,-90.8320,10.0,4.049,98.0,,'11111222,11111222,99999999' 
WAVCIS,ioos:station:WAVCIS:CSI15:1,2011-02-06T18:00:00Z,28.8332,-90.8320,10.0,5.994,97.0,,'11111222,11111222,99999999' 
WAVCIS,ioos:station:WAVCIS:CSI15:1,2011-02-06T19:00:00Z,28.8332,-90.8320,10.0,5.558,102.0,,'11111222,11111222,99999999' 
WAVCIS,ioos:station:WAVCIS:CSI15:1,2011-02-06T20:00:00Z,28.8332,-90.8320,10.0,4.89,102.0,,'11111222,11111222,99999999' 
WAVCIS,ioos:station:WAVCIS:CSI15:1,2011-02-06T21:00:00Z,28.8332,-90.8320,10.0,5.253,96.0,,'11111222,11111222,99999999' 
WAVCIS,ioos:station:WAVCIS:CSI15:1,2011-02-06T22:00:00Z,28.8332,-90.8320,10.0,5.169,67.0,,'11111222,11111222,99999999' 
WAVCIS,ioos:station:WAVCIS:CSI15:1,2011-02-06T23:00:00Z,28.8332,-90.8320,10.0,7.06,95.0,,'11111222,11111222,99999999' 
WAVCIS,ioos:station:WAVCIS:CSI15:1,2011-02-07T00:00:00Z,28.8332,-90.8320,10.0,8.08,104.0,,'11111222,11111222,99999999' 
WAVCIS,ioos:station:WAVCIS:CSI15:1,2011-02-07T01:00:00Z,28.8332,-90.8320,10.0,8.52,106.0,,'11111222,11111222,99999999' 
WAVCIS,ioos:station:WAVCIS:CSI15:1,2011-02-07T02:00:00Z,28.8332,-90.8320,10.0,10.25,115.0,,'11111222,11111222,99999999' 
WAVCIS,ioos:station:WAVCIS:CSI15:1,2011-02-07T03:00:00Z,28.8332,-90.8320,10.0,8.45,107.0,,'11111222,11111222,99999999' 
WAVCIS,ioos:station:WAVCIS:CSI15:1,2011-02-07T04:00:00Z,28.8332,-90.8320,10.0,7.05,104.0,,'11111222,11111222,99999999' 
WAVCIS,ioos:station:WAVCIS:CSI15:1,2011-02-07T05:00:00Z,28.8332,-90.8320,10.0,7.68,113.0,,'11111222,11111222,99999999' 
WAVCIS,ioos:station:WAVCIS:CSI15:1,2011-02-07T06:00:00Z,28.8332,-90.8320,10.0,6.443,121.0,,'11111222,11111222,99999999' 
WAVCIS,ioos:station:WAVCIS:CSI15:1,2011-02-07T07:00:00Z,28.8332,-90.8320,10.0,5.88,126.0,,'11111222,11111222,99999999' 
WAVCIS,ioos:station:WAVCIS:CSI15:1,2011-02-07T08:00:00Z,28.8332,-90.8320,10.0,5.889,133.0,,'11111222,11111222,99999999' 
WAVCIS,ioos:station:WAVCIS:CSI15:1,2011-02-07T09:00:00Z,28.8332,-90.8320,10.0,4.634,131.0,,'11111222,11111222,99999999' 
WAVCIS,ioos:station:WAVCIS:CSI15:1,2011-02-07T10:00:00Z,28.8332,-90.8320,10.0,3.463,187.0,,'11111222,11111222,99999999' 
WAVCIS,ioos:station:WAVCIS:CSI15:1,2011-02-07T11:00:00Z,28.8332,-90.8320,10.0,3.649,188.0,,'11111222,11111222,99999999' 
WAVCIS,ioos:station:WAVCIS:CSI15:1,2011-02-07T12:00:00Z,28.8332,-90.8320,10.0,7.18,204.0,,'11111222,11111222,99999999' 
WAVCIS,ioos:station:WAVCIS:CSI15:1,2011-02-07T13:00:00Z,28.8332,-90.8320,10.0,11.97,281.0,,'11111222,11111222,99999999' 
WAVCIS,ioos:station:WAVCIS:CSI15:1,2011-02-07T14:00:00Z,28.8332,-90.8320,10.0,14.89,282.0,,'11111222,11111222,99999999' 
WAVCIS,ioos:station:WAVCIS:CSI15:1,2011-02-07T15:00:00Z,28.8332,-90.8320,10.0,15.08,283.0,,'11111222,11111222,99999999' 
WAVCIS,ioos:station:WAVCIS:CSI15:1,2011-02-07T16:00:00Z,28.8332,-90.8320,10.0,14.33,281.0,,'11111222,11111222,99999999' 
WAVCIS,ioos:station:WAVCIS:CSI15:1,2011-02-07T17:00:00Z,28.8332,-90.8320,10.0,15.32,283.0,,'11111222,11111222,99999999' 
WAVCIS,ioos:station:WAVCIS:CSI15:1,2011-02-07T18:00:00Z,28.8332,-90.8320,10.0,18.66,286.0,,'11111222,11111222,99999999' 
WAVCIS,ioos:station:WAVCIS:CSI15:1,2011-02-07T19:00:00Z,28.8332,-90.8320,10.0,17.04,282.0,,'11111222,11111222,99999999' 
WAVCIS,ioos:station:WAVCIS:CSI15:1,2011-02-07T20:00:00Z,28.8332,-90.8320,10.0,16.68,284.0,,'11111222,11111222,99999999' 
WAVCIS,ioos:station:WAVCIS:CSI15:1,2011-02-07T21:00:00Z,28.8332,-90.8320,10.0,16.58,285.0,,'11111222,11111222,99999999' 
WAVCIS,ioos:station:WAVCIS:CSI15:1,2011-02-07T22:00:00Z,28.8332,-90.8320,10.0,14.16,282.0,,'11111222,11111222,99999999' 
WAVCIS,ioos:station:WAVCIS:CSI15:1,2011-02-07T23:00:00Z,28.8332,-90.8320,10.0,14.35,284.0,,'11111222,11111222,99999999' 
WAVCIS,ioos:station:WAVCIS:CSI15:1,2011-02-08T00:00:00Z,28.8332,-90.8320,10.0,13.41,310.0,,'11111222,11111222,99999999' 
WAVCIS,ioos:station:WAVCIS:CSI15:1,2011-02-08T01:00:00Z,28.8332,-90.8320,10.0,11.22,320.0,,'11111222,11111222,99999999' 
WAVCIS,ioos:station:WAVCIS:CSI15:1,2011-02-08T02:00:00Z,28.8332,-90.8320,10.0,10.97,330.0,,'11111222,11111222,99999999' 
WAVCIS,ioos:station:WAVCIS:CSI15:1,2011-02-08T03:00:00Z,28.8332,-90.8320,10.0,11.64,336.0,,'11111222,11111222,99999999' 
WAVCIS,ioos:station:WAVCIS:CSI15:1,2011-02-08T04:00:00Z,28.8332,-90.8320,10.0,10.56,346.0,,'11111222,11111222,99999999' 
WAVCIS,ioos:station:WAVCIS:CSI15:1,2011-02-08T05:00:00Z,28.8332,-90.8320,10.0,11.0,358.0,,'11111222,11111222,99999999' 
WAVCIS,ioos:station:WAVCIS:CSI15:1,2011-02-08T06:00:00Z,28.8332,-90.8320,10.0,9.15,359.0,,'11111222,11111222,99999999' 
WAVCIS,ioos:station:WAVCIS:CSI15:1,2011-02-08T07:00:00Z,28.8332,-90.8320,10.0,8.02,3.0,,'11111222,11111222,99999999' 
WAVCIS,ioos:station:WAVCIS:CSI15:1,2011-02-08T08:00:00Z,28.8332,-90.8320,10.0,7.32,14.0,,'11111222,11111222,99999999' 
WAVCIS,ioos:station:WAVCIS:CSI15:1,2011-02-08T09:00:00Z,28.8332,-90.8320,10.0,5.393,4.0,,'11111222,11111222,99999999' 
WAVCIS,ioos:station:WAVCIS:CSI15:1,2011-02-08T10:00:00Z,28.8332,-90.8320,10.0,5.132,8.0,,'11111222,11111222,99999999' 
WAVCIS,ioos:station:WAVCIS:CSI15:1,2011-02-08T11:00:00Z,28.8332,-90.8320,10.0,6.308,4.0,,'11111222,11111222,99999999' 
WAVCIS,ioos:station:WAVCIS:CSI15:1,2011-02-08T12:00:00Z,28.8332,-90.8320,10.0,5.839,359.0,,'11111222,11111222,99999999' 
WAVCIS,ioos:station:WAVCIS:CSI15:1,2011-02-08T13:00:00Z,28.8332,-90.8320,10.0,6.67,358.0,,'11111222,11111222,99999999' 
WAVCIS,ioos:station:WAVCIS:CSI15:1,2011-02-08T14:00:00Z,28.8332,-90.8320,10.0,4.776,22.0,,'11111222,11111222,99999999' 
WAVCIS,ioos:station:WAVCIS:CSI15:1,2011-02-08T15:00:00Z,28.8332,-90.8320,10.0,5.828,21.0,,'11111222,11111222,99999999' 
WAVCIS,ioos:station:WAVCIS:CSI15:1,2011-02-08T16:00:00Z,28.8332,-90.8320,10.0,6.412,18.0,,'11111222,11111222,99999999' 
WAVCIS,ioos:station:WAVCIS:CSI15:1,2011-02-08T17:00:00Z,28.8332,-90.8320,10.0,6.72,28.0,,'11111222,11111222,99999999' 
WAVCIS,ioos:station:WAVCIS:CSI15:1,2011-02-08T18:00:00Z,28.8332,-90.8320,10.0,5.888,41.0,,'11111222,11111222,99999999' 
WAVCIS,ioos:station:WAVCIS:CSI15:1,2011-02-08T19:00:00Z,28.8332,-90.8320,10.0,5.242,52.0,,'11111222,11111222,99999999' 
WAVCIS,ioos:station:WAVCIS:CSI15:1,2011-02-08T20:00:00Z,28.8332,-90.8320,10.0,5.782,41.0,,'11111222,11111222,99999999' 
WAVCIS,ioos:station:WAVCIS:CSI15:1,2011-02-08T21:00:00Z,28.8332,-90.8320,10.0,7.07,45.0,,'11111222,11111222,99999999' 
WAVCIS,ioos:station:WAVCIS:CSI15:1,2011-02-08T22:00:00Z,28.8332,-90.8320,10.0,7.69,48.0,,'11111222,11111222,99999999' 
WAVCIS,ioos:station:WAVCIS:CSI15:1,2011-02-08T23:00:00Z,28.8332,-90.8320,10.0,7.55,50.0,,'11111222,11111222,99999999' 
WAVCIS,ioos:station:WAVCIS:CSI15:1,2011-02-09T00:00:00Z,28.8332,-90.8320,10.0,8.26,55.0,,'11111222,11111222,99999999' 
WAVCIS,ioos:station:WAVCIS:CSI15:1,2011-02-09T01:00:00Z,28.8332,-90.8320,10.0,10.43,49.0,,'11111222,11111222,99999999' 
WAVCIS,ioos:station:WAVCIS:CSI15:1,2011-02-09T02:00:00Z,28.8332,-90.8320,10.0,9.2,60.0,,'11111222,11111222,99999999' 
WAVCIS,ioos:station:WAVCIS:CSI15:1,2011-02-09T03:00:00Z,28.8332,-90.8320,10.0,7.59,80.0,,'11111222,11111222,99999999' 
WAVCIS,ioos:station:WAVCIS:CSI15:1,2011-02-09T04:00:00Z,28.8332,-90.8320,10.0,7.28,61.0,,'11111222,11111222,99999999' 
WAVCIS,ioos:station:WAVCIS:CSI15:1,2011-02-09T05:00:00Z,28.8332,-90.8320,10.0,7.33,51.0,,'11111222,11111222,99999999' 